SAS2875 ENBR-EKCH

Flight info

Callsign SAS2875
Flight time 0h 58m
Altitude 39000
Route TUXIL DCT ZOL DCT TESPI
Aircraft A319/M-SDE3FGIJ1RWXY/LB1

Departure

Time 2026-05-05 16:41
Airport Bergen Airport, Flesland (ENBR)

Arrival

Time 2026-05-05 17:40
Airport Copenhagen Kastrup Airport (EKCH)
Time Latitude Longitude Altitude Speed Heading
2026-05-05 16:10 60.28862 5.22576 173 ft 0 kts 60°
2026-05-05 16:21 60.28862 5.22575 173 ft 0 kts 60°
2026-05-05 16:29 60.28859 5.22565 173 ft 4 kts 62°
2026-05-05 16:29 60.28849 5.22516 173 ft 4 kts 79°
2026-05-05 16:30 60.28845 5.22465 169 ft 2 kts 83°
2026-05-05 16:30 60.28845 5.22462 169 ft 1 kts 83°
2026-05-05 16:35 60.28845 5.22469 169 ft 1 kts 87°
2026-05-05 16:35 60.28841 5.22477 169 ft 1 kts 130°
2026-05-05 16:36 60.28840 5.22438 167 ft 9 kts 319°
2026-05-05 16:36 60.28926 5.22371 165 ft 17 kts 305°
2026-05-05 16:36 60.29032 5.22241 162 ft 22 kts 351°
2026-05-05 16:36 60.29199 5.22185 163 ft 27 kts 350°
2026-05-05 16:37 60.29384 5.22123 159 ft 27 kts 350°
2026-05-05 16:37 60.29581 5.22057 150 ft 26 kts 351°
2026-05-05 16:37 60.29778 5.21991 148 ft 31 kts 350°
2026-05-05 16:37 60.29991 5.21919 156 ft 32 kts 350°
2026-05-05 16:38 60.30216 5.21844 164 ft 34 kts 351°
2026-05-05 16:38 60.30398 5.21782 172 ft 18 kts 350°
2026-05-05 16:38 60.30526 5.21740 178 ft 19 kts 351°
2026-05-05 16:38 60.30645 5.21692 181 ft 7 kts 340°
2026-05-05 16:39 60.30665 5.21610 182 ft 7 kts 266°
2026-05-05 16:39 60.30662 5.21575 183 ft 0 kts 261°
2026-05-05 16:40 60.30658 5.21523 183 ft 12 kts 261°
2026-05-05 16:40 60.30598 5.21395 183 ft 18 kts 173°
2026-05-05 16:41 60.30362 5.21471 168 ft 66 kts 171°
2026-05-05 16:41 60.29683 5.21702 150 ft 130 kts 171°
2026-05-05 16:41 60.28645 5.22057 376 ft 160 kts 173°
2026-05-05 16:41 60.27553 5.22463 1072 ft 159 kts 174°
2026-05-05 16:42 60.26462 5.22828 1804 ft 159 kts 174°
2026-05-05 16:42 60.25332 5.23191 2275 ft 175 kts 175°
2026-05-05 16:42 60.24048 5.23599 2701 ft 198 kts 174°
2026-05-05 16:42 60.22609 5.24064 3126 ft 221 kts 173°
2026-05-05 16:43 60.21013 5.24588 3630 ft 246 kts 173°
2026-05-05 16:43 60.19247 5.25171 4384 ft 264 kts 173°
2026-05-05 16:43 60.17409 5.25785 5401 ft 272 kts 172°
2026-05-05 16:43 60.15533 5.26411 6099 ft 274 kts 172°
2026-05-05 16:44 60.13637 5.27041 7057 ft 278 kts 172°
2026-05-05 16:44 60.11712 5.27683 8084 ft 282 kts 173°
2026-05-05 16:44 60.09761 5.28332 9095 ft 287 kts 173°
2026-05-05 16:44 60.07769 5.28957 10083 ft 292 kts 174°
2026-05-05 16:45 60.05734 5.29859 10623 ft 315 kts 160°
2026-05-05 16:45 60.03842 5.32363 11084 ft 337 kts 141°
2026-05-05 16:45 60.02023 5.35426 11869 ft 345 kts 141°
2026-05-05 16:45 60.00175 5.38547 12685 ft 352 kts 141°
2026-05-05 16:46 59.98283 5.41732 13543 ft 358 kts 142°
2026-05-05 16:46 59.96362 5.44961 14305 ft 364 kts 142°
2026-05-05 16:46 59.94408 5.48232 15024 ft 370 kts 143°
2026-05-05 16:46 59.92420 5.51548 15722 ft 376 kts 143°
2026-05-05 16:47 59.90396 5.54909 16446 ft 381 kts 144°
2026-05-05 16:47 59.88344 5.58298 17116 ft 387 kts 144°
2026-05-05 16:47 59.86250 5.61746 17808 ft 393 kts 145°
2026-05-05 16:47 59.84135 5.65225 18442 ft 398 kts 145°
2026-05-05 16:48 59.81980 5.68766 19021 ft 404 kts 146°
2026-05-05 16:48 59.79800 5.72341 19615 ft 409 kts 146°
2026-05-05 16:48 59.77592 5.75964 20200 ft 415 kts 147°
2026-05-05 16:48 59.75351 5.79643 20716 ft 420 kts 147°
2026-05-05 16:49 59.73095 5.83343 21301 ft 424 kts 148°
2026-05-05 16:49 59.70804 5.87084 21904 ft 428 kts 148°
2026-05-05 16:49 59.68499 5.90839 22501 ft 432 kts 148°
2026-05-05 16:49 59.66164 5.94639 23082 ft 436 kts 148°
2026-05-05 16:50 59.63802 5.98478 23644 ft 440 kts 149°
2026-05-05 16:50 59.61428 6.02327 24129 ft 444 kts 149°
2026-05-05 16:50 59.59038 6.06194 24629 ft 446 kts 149°
2026-05-05 16:50 59.56626 6.10092 25107 ft 449 kts 149°
2026-05-05 16:51 59.54202 6.14004 25609 ft 452 kts 149°
2026-05-05 16:51 59.51756 6.17938 26087 ft 454 kts 149°
2026-05-05 16:51 59.49305 6.21866 26484 ft 457 kts 149°
2026-05-05 16:51 59.46825 6.25834 26930 ft 460 kts 149°
2026-05-05 16:52 59.44336 6.29812 27354 ft 462 kts 149°
2026-05-05 16:52 59.41871 6.33752 27892 ft 463 kts 149°
2026-05-05 16:52 59.39338 6.37795 28399 ft 465 kts 149°
2026-05-05 16:52 59.36819 6.41804 28859 ft 468 kts 149°
2026-05-05 16:53 59.34310 6.45781 29247 ft 471 kts 149°
2026-05-05 16:53 59.31754 6.49820 28338 ft 474 kts 149°
2026-05-05 16:53 59.29189 6.53874 30078 ft 474 kts 149°
2026-05-05 16:53 59.26613 6.57941 30397 ft 478 kts 149°
2026-05-05 16:54 59.24015 6.62036 30743 ft 481 kts 149°
2026-05-05 16:54 59.21375 6.66188 31104 ft 483 kts 149°
2026-05-05 16:54 59.18781 6.70260 31458 ft 485 kts 149°
2026-05-05 16:54 59.16148 6.74383 31818 ft 486 kts 148°
2026-05-05 16:55 59.13517 6.78496 32262 ft 484 kts 148°
2026-05-05 16:55 59.10861 6.82638 32830 ft 481 kts 148°
2026-05-05 16:55 59.08285 6.86646 33330 ft 479 kts 148°
2026-05-05 16:55 59.05682 6.90687 33816 ft 478 kts 148°
2026-05-05 16:56 59.03051 6.94761 34261 ft 477 kts 148°
2026-05-05 16:56 59.00488 6.98721 34676 ft 476 kts 148°
2026-05-05 16:56 58.97867 7.02755 35092 ft 474 kts 148°
2026-05-05 16:56 58.95287 7.06717 35474 ft 473 kts 148°
2026-05-05 16:57 58.92740 7.10628 35835 ft 473 kts 148°
2026-05-05 16:57 58.90168 7.14578 36190 ft 472 kts 148°
2026-05-05 16:57 58.87598 7.18517 36540 ft 471 kts 148°
2026-05-05 16:57 58.85030 7.22447 36887 ft 471 kts 148°
2026-05-05 16:58 58.82455 7.26375 37194 ft 470 kts 147°
2026-05-05 16:58 58.79893 7.30274 37501 ft 470 kts 147°
2026-05-05 16:58 58.77329 7.34163 37813 ft 469 kts 147°
2026-05-05 16:58 58.74760 7.38056 38110 ft 469 kts 147°
2026-05-05 16:59 58.72201 7.41931 38435 ft 468 kts 147°
2026-05-05 16:59 58.69648 7.45791 38709 ft 468 kts 147°
2026-05-05 16:59 58.67086 7.49652 38905 ft 468 kts 147°
2026-05-05 16:59 58.64519 7.53506 38966 ft 469 kts 147°
2026-05-05 17:00 58.59372 7.61216 38972 ft 470 kts 147°
2026-05-05 17:00 58.54213 7.68934 38964 ft 470 kts 147°
2026-05-05 17:01 58.49046 7.76622 38953 ft 470 kts 147°
2026-05-05 17:01 58.43876 7.84284 38950 ft 470 kts 147°
2026-05-05 17:02 58.38707 7.91926 38950 ft 470 kts 147°
2026-05-05 17:02 58.33527 7.99558 38876 ft 471 kts 147°
2026-05-05 17:03 58.28371 8.07106 38857 ft 470 kts 148°
2026-05-05 17:03 58.23186 8.14678 38868 ft 470 kts 148°
2026-05-05 17:04 58.18006 8.22225 38857 ft 469 kts 148°
2026-05-05 17:04 58.12823 8.29730 38875 ft 469 kts 148°
2026-05-05 17:05 58.07643 8.37202 38904 ft 468 kts 148°
2026-05-05 17:05 58.02461 8.44662 38943 ft 468 kts 148°
2026-05-05 17:06 57.97285 8.52081 38944 ft 468 kts 148°
2026-05-05 17:06 57.92101 8.59485 38942 ft 468 kts 148°
2026-05-05 17:07 57.86917 8.66864 38934 ft 467 kts 148°
2026-05-05 17:07 57.81732 8.74208 38948 ft 466 kts 148°
2026-05-05 17:08 57.76546 8.81513 38959 ft 466 kts 148°
2026-05-05 17:08 57.71369 8.88797 38959 ft 466 kts 148°
2026-05-05 17:09 57.66185 8.96069 38961 ft 466 kts 148°
2026-05-05 17:09 57.61005 9.03318 38959 ft 466 kts 148°
2026-05-05 17:10 57.55806 9.10543 38938 ft 465 kts 148°
2026-05-05 17:10 57.50622 9.17715 38954 ft 465 kts 148°
2026-05-05 17:11 57.46304 9.23675 38965 ft 465 kts 148°
2026-05-05 17:11 57.41117 9.30829 38969 ft 464 kts 148°
2026-05-05 17:12 57.35930 9.37962 38970 ft 464 kts 148°
2026-05-05 17:12 57.30734 9.45089 38968 ft 464 kts 149°
2026-05-05 17:13 57.25544 9.52152 38956 ft 464 kts 149°
2026-05-05 17:13 57.20346 9.59198 38946 ft 463 kts 149°
2026-05-05 17:14 57.15157 9.66221 38956 ft 462 kts 149°
2026-05-05 17:14 57.09977 9.73213 38977 ft 462 kts 149°
2026-05-05 17:15 57.04793 9.80162 38980 ft 461 kts 149°
2026-05-05 17:15 56.99640 9.87040 38973 ft 461 kts 149°
2026-05-05 17:16 56.94455 9.93965 38962 ft 461 kts 149°
2026-05-05 17:16 56.89277 10.00854 38827 ft 460 kts 149°
2026-05-05 17:17 56.86685 10.04291 38271 ft 463 kts 149°
2026-05-05 17:17 56.84065 10.07755 37617 ft 464 kts 149°
2026-05-05 17:17 56.81452 10.11208 36999 ft 465 kts 149°
2026-05-05 17:17 56.78818 10.14682 36253 ft 468 kts 149°
2026-05-05 17:18 56.76174 10.18157 35593 ft 468 kts 149°
2026-05-05 17:18 56.73552 10.21604 35166 ft 464 kts 149°
2026-05-05 17:18 56.70947 10.25028 34667 ft 461 kts 150°
2026-05-05 17:18 56.68351 10.28436 34133 ft 458 kts 149°
2026-05-05 17:19 56.65774 10.31810 33629 ft 455 kts 150°
2026-05-05 17:19 56.63212 10.35158 33126 ft 451 kts 150°
2026-05-05 17:19 56.60685 10.38450 32634 ft 447 kts 150°
2026-05-05 17:19 56.58163 10.41725 32137 ft 443 kts 150°
2026-05-05 17:20 56.55673 10.44951 31642 ft 439 kts 150°
2026-05-05 17:20 56.53196 10.48154 31166 ft 436 kts 150°
2026-05-05 17:20 56.50736 10.51331 30682 ft 432 kts 150°
2026-05-05 17:20 56.48299 10.54479 30220 ft 429 kts 150°
2026-05-05 17:21 56.45889 10.57589 29719 ft 426 kts 150°
2026-05-05 17:21 56.43481 10.60693 29261 ft 420 kts 150°
2026-05-05 17:21 56.41112 10.63747 28830 ft 416 kts 150°
2026-05-05 17:22 56.36464 10.69725 27988 ft 406 kts 150°
2026-05-05 17:22 56.34167 10.72666 27577 ft 403 kts 150°
2026-05-05 17:22 56.31884 10.75580 27172 ft 400 kts 150°
2026-05-05 17:22 56.29624 10.78457 26767 ft 397 kts 150°
2026-05-05 17:23 56.27378 10.81312 26367 ft 394 kts 150°
2026-05-05 17:23 56.25150 10.84144 25962 ft 391 kts 150°
2026-05-05 17:23 56.22937 10.86961 25532 ft 389 kts 150°
2026-05-05 17:23 56.20733 10.89761 25111 ft 386 kts 150°
2026-05-05 17:24 56.18551 10.92527 24693 ft 384 kts 151°
2026-05-05 17:24 56.16368 10.95287 24271 ft 382 kts 151°
2026-05-05 17:24 56.14199 10.98023 23830 ft 381 kts 151°
2026-05-05 17:24 56.12033 11.00750 23365 ft 379 kts 151°
2026-05-05 17:25 56.09909 11.03426 22906 ft 376 kts 151°
2026-05-05 17:25 56.08467 11.05245 22608 ft 374 kts 151°
2026-05-05 17:25 56.05673 11.08767 22026 ft 369 kts 150°
2026-05-05 17:25 56.03584 11.11393 21580 ft 365 kts 150°
2026-05-05 17:26 56.01505 11.13991 21153 ft 363 kts 151°
2026-05-05 17:26 55.99444 11.16557 20720 ft 360 kts 151°
2026-05-05 17:26 55.97396 11.19109 20290 ft 358 kts 150°
2026-05-05 17:26 55.95339 11.21675 19851 ft 356 kts 150°
2026-05-05 17:27 55.93335 11.24175 19426 ft 354 kts 150°
2026-05-05 17:27 55.91322 11.26686 19000 ft 353 kts 150°
2026-05-05 17:27 55.89289 11.29221 18575 ft 351 kts 150°
2026-05-05 17:27 55.87315 11.31672 18131 ft 350 kts 150°
2026-05-05 17:28 55.85326 11.34132 17607 ft 347 kts 150°
2026-05-05 17:28 55.83356 11.36571 17248 ft 343 kts 150°
2026-05-05 17:28 55.81404 11.38992 16844 ft 340 kts 150°
2026-05-05 17:28 55.79562 11.41619 16452 ft 342 kts 139°
2026-05-05 17:29 55.78101 11.44969 16055 ft 345 kts 123°
2026-05-05 17:29 55.77122 11.48877 15651 ft 347 kts 111°
2026-05-05 17:29 55.76188 11.52787 15194 ft 344 kts 121°
2026-05-05 17:29 55.74971 11.56426 14777 ft 341 kts 127°
2026-05-05 17:30 55.73631 11.59884 14381 ft 338 kts 129°
2026-05-05 17:30 55.72268 11.63255 14014 ft 336 kts 129°
2026-05-05 17:30 55.70915 11.66631 13621 ft 334 kts 128°
2026-05-05 17:30 55.69602 11.70006 13217 ft 333 kts 127°
2026-05-05 17:31 55.68319 11.73398 12816 ft 330 kts 127°
2026-05-05 17:31 55.67060 11.76791 12424 ft 328 kts 126°
2026-05-05 17:31 55.65817 11.80170 12039 ft 326 kts 126°
2026-05-05 17:31 55.64589 11.83519 11671 ft 324 kts 126°
2026-05-05 17:32 55.63367 11.86851 11282 ft 322 kts 126°
2026-05-05 17:32 55.62146 11.90169 10914 ft 320 kts 126°
2026-05-05 17:32 55.60935 11.93450 10558 ft 318 kts 126°
2026-05-05 17:32 55.59731 11.96703 10210 ft 315 kts 126°
2026-05-05 17:33 55.58575 11.99971 9888 ft 311 kts 121°
2026-05-05 17:33 55.57564 12.03319 9337 ft 306 kts 119°
2026-05-05 17:33 55.56602 12.06653 8750 ft 303 kts 118°
2026-05-05 17:33 55.55662 12.09979 8179 ft 300 kts 118°
2026-05-05 17:34 55.54724 12.13304 7618 ft 297 kts 118°
2026-05-05 17:34 55.53805 12.16542 7086 ft 294 kts 118°
2026-05-05 17:34 55.52899 12.19719 6550 ft 291 kts 118°
2026-05-05 17:34 55.51978 12.22929 6017 ft 289 kts 118°
2026-05-05 17:35 55.51090 12.26008 5661 ft 278 kts 118°
2026-05-05 17:35 55.50241 12.28943 5521 ft 260 kts 118°
2026-05-05 17:35 55.49443 12.31690 5398 ft 243 kts 118°
2026-05-05 17:35 55.48692 12.34270 5164 ft 232 kts 118°
2026-05-05 17:36 55.47961 12.36780 4786 ft 228 kts 118°
2026-05-05 17:36 55.47369 12.39337 4335 ft 225 kts 96°
2026-05-05 17:36 55.47586 12.41975 3903 ft 217 kts 59°
2026-05-05 17:36 55.48513 12.43893 3693 ft 198 kts 36°
2026-05-05 17:37 55.49555 12.45497 3280 ft 202 kts 39°
2026-05-05 17:37 55.50232 12.46675 2992 ft 202 kts 43°
2026-05-05 17:37 55.51485 12.48929 2639 ft 184 kts 39°
2026-05-05 17:37 55.52456 12.50328 2314 ft 175 kts 30°
2026-05-05 17:38 55.53371 12.51513 2278 ft 152 kts 33°
2026-05-05 17:38 55.54147 12.52695 1904 ft 147 kts 35°
2026-05-05 17:38 55.54959 12.53844 1393 ft 149 kts 34°
2026-05-05 17:38 55.55715 12.55053 1037 ft 142 kts 41°
2026-05-05 17:39 55.56438 12.56158 759 ft 133 kts 33°
2026-05-05 17:39 55.57166 12.57177 551 ft 134 kts 32°
2026-05-05 17:39 55.57862 12.58249 365 ft 132 kts 37°
2026-05-05 17:39 55.58552 12.59322 210 ft 132 kts 37°
2026-05-05 17:40 55.59238 12.60385 66 ft 131 kts 37°
2026-05-05 17:40 55.59867 12.61350 23 ft 103 kts 41°
2026-05-05 17:40 55.60200 12.61865 26 ft 43 kts 41°
2026-05-05 17:40 55.60434 12.62216 25 ft 45 kts 38°
2026-05-05 17:41 55.60653 12.62356 25 ft 11 kts
2026-05-05 17:41 55.60689 12.62366 25 ft 3 kts
2026-05-05 17:42 55.60691 12.62366 25 ft 2 kts
2026-05-05 17:42 55.60717 12.62375 24 ft 6 kts 11°
2026-05-05 17:42 55.60768 12.62395 24 ft 9 kts 17°
2026-05-05 17:42 55.60834 12.62464 24 ft 13 kts 40°
2026-05-05 17:43 55.60908 12.62578 25 ft 16 kts 41°
2026-05-05 17:43 55.60997 12.62715 25 ft 19 kts 41°
2026-05-05 17:43 55.61103 12.62879 25 ft 21 kts 41°
2026-05-05 17:43 55.61221 12.63061 24 ft 24 kts 41°
2026-05-05 17:44 55.61356 12.63272 24 ft 27 kts 41°
2026-05-05 17:44 55.61494 12.63484 24 ft 22 kts 41°
2026-05-05 17:44 55.61616 12.63673 25 ft 25 kts 41°
2026-05-05 17:44 55.61741 12.63868 23 ft 18 kts 41°
2026-05-05 17:45 55.61840 12.64023 24 ft 21 kts 41°
2026-05-05 17:45 55.61975 12.64159 26 ft 24 kts 25°
2026-05-05 17:45 55.62140 12.64294 25 ft 28 kts 25°
2026-05-05 17:45 55.62291 12.64401 23 ft 24 kts 14°
2026-05-05 17:46 55.62421 12.64438 26 ft 17 kts 333°
2026-05-05 17:46 55.62493 12.64287 24 ft 16 kts 306°
2026-05-05 17:46 55.62562 12.64207 24 ft 12 kts 19°
2026-05-05 17:46 55.62633 12.64286 23 ft 12 kts 29°
2026-05-05 17:47 55.62708 12.64342 26 ft 12 kts 25°
2026-05-05 17:47 55.62758 12.64394 25 ft 6 kts 54°
2026-05-05 17:47 55.62757 12.64452 24 ft 0 kts 101°
2026-05-05 17:47 55.62757 12.64453 24 ft 0 kts 100°
2026-05-05 17:48 55.62756 12.64467 25 ft 2 kts 101°
2026-05-05 17:48 55.62755 12.64479 26 ft 0 kts 101°